User: anonymous   Login
Location: Ward Pound Ridge Reservation
(41.2500°N, 73.6000°W)
Time: 07:27:57
(UTC-05:00)
Language:

N. Korean satellite - Orbit

View from above orbital plane
View from above orbital plane
View from above satellite
View from above satellite

Ground track
Ground track

The orbit data is extracted from the following two-line orbital elements,

1 39026U 12072A   17345.93501007 +.00001447 +00000-0 +57661-4 0  9992
2 39026 097.2163 357.7007 0038118 267.3728 092.3148 15.26179080277030
Epoch (UTC): 11 December 2017 22:26:24
Eccentricity: 0.0038118
inclination: 97.2163°
perigee height: 461 km
apogee height: 513 km
right ascension of ascending node: 357.7007°
argument of perigee: 267.3728°
revolutions per day: 15.26179080
mean anomaly at epoch: 92.3148°
orbit number at epoch: 27703

The dashed part of the orbit path shows where the satellite is in the earth's shadow,  

DLR